• In France
  • List of Countries
  • For 7 days
  • Water Temperature
  • Satellite Maps
  • Weather Map
  • Weather Widgets
  • user-avatar
    Login

    Hourly Weather Nyiregyhaza

    Today, 19 November, Sunday

    Time Temperature Precipitation Wind Pressure Humidity
    00:00 +3°C° 0 mm 3 mps 751 mmHg 88%
    01:00 +2°C° 0 mm 5 mps 750 mmHg 84%
    02:00 +1°C° 0 mm 4 mps 750 mmHg 83%
    03:00 +1°C° 0 mm 4 mps 750 mmHg 82%
    04:00 +1°C° 0 mm 4 mps 750 mmHg 81%
    05:00 +1°C° 0 mm 4 mps 750 mmHg 83%
    06:00 +2°C° 0 mm 3 mps 750 mmHg 84%
    07:00 +2°C° 0 mm 2 mps 750 mmHg 86%
    08:00 +2°C° 0 mm 3 mps 750 mmHg 82%
    09:00 +3°C° 0 mm 3 mps 750 mmHg 77%
    10:00 +4°C° 0 mm 3 mps 750 mmHg 72%
    11:00 +5°C° 0 mm 4 mps 750 mmHg 69%
    12:00 +6°C° 0 mm 4 mps 749 mmHg 65%
    13:00 +6°C° 0 mm 4 mps 749 mmHg 62%
    14:00 +6°C° 0.1 mm 4 mps 749 mmHg 65%
    15:00 +5°C° 0.1 mm 3 mps 749 mmHg 69%
    16:00 +5°C° 0.1 mm 3 mps 749 mmHg 72%
    17:00 +4°C° 0.2 mm 3 mps 749 mmHg 74%
    18:00 +4°C° 0.2 mm 4 mps 749 mmHg 76%
    19:00 +4°C° 0.2 mm 4 mps 749 mmHg 79%
    20:00 +3°C° 0 mm 4 mps 749 mmHg 80%
    21:00 +1°C° 0 mm 4 mps 749 mmHg 82%
    22:00 +2°C° 0 mm 3 mps 749 mmHg 84%
    23:00 +2°C° 0 mm 3 mps 750 mmHg 85%

    Tomorrow, 20 November, Monday

    Time Temperature Precipitation Wind Pressure Humidity
    00:00 +1°C° 0 mm 3 mps 750 mmHg 85%
    01:00 +1°C° 0 mm 3 mps 750 mmHg 86%
    02:00 +1°C° 0 mm 3 mps 750 mmHg 86%
    03:00 0°C° 0 mm 4 mps 750 mmHg 86%
    04:00 0°C° 0 mm 4 mps 750 mmHg 86%
    05:00 0°C° 0.1 mm 4 mps 750 mmHg 85%
    06:00 0°C° 0.1 mm 4 mps 750 mmHg 84%
    07:00 0°C° 0.1 mm 4 mps 750 mmHg 82%
    08:00 +1°C° 0 mm 4 mps 751 mmHg 77%
    09:00 +3°C° 0 mm 4 mps 751 mmHg 72%
    10:00 +4°C° 0 mm 4 mps 751 mmHg 67%
    11:00 +5°C° 0 mm 4 mps 751 mmHg 63%
    12:00 +5°C° 0 mm 3 mps 752 mmHg 58%
    13:00 +7°C° 0 mm 3 mps 752 mmHg 54%
    14:00 +5°C° 0 mm 3 mps 752 mmHg 57%
    15:00 +5°C° 0 mm 2 mps 752 mmHg 61%
    16:00 +4°C° 0 mm 2 mps 752 mmHg 64%
    17:00 +4°C° 0 mm 2 mps 752 mmHg 67%
    18:00 +3°C° 0 mm 2 mps 752 mmHg 70%
    19:00 +2°C° 0 mm 3 mps 752 mmHg 73%
    20:00 +2°C° 0 mm 3 mps 752 mmHg 75%
    21:00 +2°C° 0 mm 3 mps 753 mmHg 77%
    22:00 +1°C° 0 mm 3 mps 753 mmHg 79%
    23:00 +1°C° 0 mm 3 mps 753 mmHg 81%

    Day after tomorrow, 21 November, Tuesday

    Time Temperature Precipitation Wind Pressure Humidity
    00:00 +1°C° 0 mm 3 mps 753 mmHg 82%
    01:00 +1°C° 0 mm 3 mps 753 mmHg 83%
    02:00 +1°C° 0.1 mm 3 mps 752 mmHg 84%
    03:00 +1°C° 0.1 mm 3 mps 752 mmHg 84%
    04:00 +2°C° 0.1 mm 2 mps 752 mmHg 85%
    05:00 +1°C° 0.5 mm 3 mps 751 mmHg 85%
    06:00 +2°C° 0.5 mm 3 mps 751 mmHg 85%
    07:00 +1°C° 0.5 mm 4 mps 751 mmHg 86%
    08:00 +1°C° 0.5 mm 4 mps 751 mmHg 85%
    09:00 +1°C° 0.5 mm 5 mps 750 mmHg 84%
    10:00 +2°C° 0.5 mm 5 mps 750 mmHg 82%
    11:00 +2°C° 0.3 mm 5 mps 750 mmHg 83%
    12:00 +3°C° 0.3 mm 4 mps 749 mmHg 84%
    13:00 +4°C° 0.3 mm 4 mps 749 mmHg 85%
    14:00 +4°C° 0.2 mm 3 mps 749 mmHg 87%
    15:00 +4°C° 0.2 mm 3 mps 749 mmHg 89%
    16:00 +5°C° 0.2 mm 2 mps 749 mmHg 91%
    17:00 +5°C° 0.2 mm 2 mps 749 mmHg 92%
    18:00 +5°C° 0.2 mm 2 mps 749 mmHg 93%
    19:00 +5°C° 0.2 mm 2 mps 749 mmHg 94%
    20:00 +5°C° 0.1 mm 2 mps 750 mmHg 94%
    21:00 +5°C° 0.1 mm 2 mps 750 mmHg 94%
    22:00 +5°C° 0.1 mm 2 mps 750 mmHg 94%
    23:00 +5°C° 0.1 mm 2 mps 750 mmHg 94%

    22 November, Wednesday

    Time Temperature Precipitation Wind Pressure Humidity
    00:00 +4°C° 0.1 mm 2 mps 751 mmHg 94%
    01:00 +4°C° 0.1 mm 2 mps 751 mmHg 94%
    02:00 +4°C° 0 mm 2 mps 751 mmHg 93%
    03:00 +4°C° 0 mm 2 mps 752 mmHg 93%
    04:00 +3°C° 0 mm 2 mps 752 mmHg 92%
    05:00 +3°C° 0 mm 2 mps 753 mmHg 90%
    06:00 +3°C° 0 mm 2 mps 753 mmHg 89%
    07:00 +3°C° 0 mm 2 mps 754 mmHg 87%
    08:00 +4°C° 0 mm 2 mps 754 mmHg 83%
    09:00 +5°C° 0 mm 1 mps 754 mmHg 79%
    10:00 +6°C° 0 mm 1 mps 755 mmHg 76%
    11:00 +6°C° 0 mm 1 mps 755 mmHg 73%
    12:00 +7°C° 0 mm 1 mps 755 mmHg 70%
    13:00 +8°C° 0 mm 1 mps 755 mmHg 67%
    14:00 +7°C° 0 mm 1 mps 755 mmHg 71%
    15:00 +7°C° 0 mm 1 mps 755 mmHg 75%
    16:00 +6°C° 0 mm 1 mps 755 mmHg 79%
    17:00 +6°C° 0 mm 1 mps 755 mmHg 81%
    18:00 +6°C° 0 mm 1 mps 756 mmHg 84%
    19:00 +5°C° 0 mm 2 mps 756 mmHg 86%
    20:00 +5°C° 0 mm 2 mps 756 mmHg 88%
    21:00 +5°C° 0 mm 2 mps 756 mmHg 90%
    22:00 +5°C° 0 mm 2 mps 756 mmHg 92%
    23:00 +5°C° 0 mm 2 mps 757 mmHg 93%

    23 November, Thursday

    Time Temperature Precipitation Wind Pressure Humidity
    00:00 +4°C° 0 mm 2 mps 757 mmHg 93%
    01:00 +4°C° 0 mm 2 mps 757 mmHg 94%
    02:00 +4°C° 0 mm 2 mps 757 mmHg 94%
    03:00 +4°C° 0 mm 2 mps 757 mmHg 95%
    04:00 +4°C° 0 mm 2 mps 757 mmHg 95%
    05:00 +4°C° 0 mm 2 mps 757 mmHg 95%
    06:00 +4°C° 0 mm 2 mps 758 mmHg 95%
    07:00 +4°C° 0 mm 2 mps 758 mmHg 95%
    08:00 +5°C° 0 mm 2 mps 758 mmHg 92%
    09:00 +6°C° 0 mm 2 mps 758 mmHg 89%
    10:00 +7°C° 0 mm 2 mps 759 mmHg 86%
    11:00 +7°C° 0 mm 2 mps 759 mmHg 84%
    12:00 +9°C° 0 mm 1 mps 758 mmHg 82%
    13:00 +10°C° 0 mm 1 mps 758 mmHg 80%
    14:00 +9°C° 0 mm 1 mps 758 mmHg 83%
    15:00 +9°C° 0 mm 1 mps 759 mmHg 86%
    16:00 +8°C° 0 mm 1 mps 759 mmHg 88%
    17:00 +8°C° 0 mm 1 mps 759 mmHg 89%
    18:00 +8°C° 0 mm 1 mps 759 mmHg 90%
    19:00 +7°C° 0 mm 1 mps 759 mmHg 90%
    20:00 +7°C° 0 mm 1 mps 759 mmHg 90%
    21:00 +7°C° 0 mm 1 mps 759 mmHg 90%
    22:00 +7°C° 0 mm 1 mps 760 mmHg 90%
    23:00 +7°C° 0 mm 1 mps 760 mmHg 91%

    24 November, Friday

    Time Temperature Precipitation Wind Pressure Humidity
    00:00 +7°C° 0 mm 1 mps 760 mmHg 91%
    01:00 +7°C° 0 mm 1 mps 760 mmHg 91%
    02:00 +7°C° 0 mm 1 mps 759 mmHg 91%
    03:00 +6°C° 0 mm 1 mps 759 mmHg 91%
    04:00 +6°C° 0 mm 1 mps 759 mmHg 92%
    05:00 +6°C° 0 mm 1 mps 759 mmHg 92%
    06:00 +6°C° 0 mm 1 mps 760 mmHg 92%
    07:00 +6°C° 0 mm 1 mps 760 mmHg 92%
    08:00 +7°C° 0 mm 1 mps 760 mmHg 89%
    09:00 +8°C° 0 mm 1 mps 760 mmHg 85%
    10:00 +9°C° 0 mm 1 mps 760 mmHg 82%
    11:00 +9°C° 0 mm 1 mps 760 mmHg 80%
    12:00 +10°C° 0 mm 1 mps 759 mmHg 77%
    13:00 +9°C° 0 mm 0 mps 759 mmHg 75%
    14:00 +10°C° 0 mm 1 mps 759 mmHg 79%
    15:00 +9°C° 0 mm 1 mps 759 mmHg 83%
    16:00 +8°C° 0 mm 1 mps 759 mmHg 86%
    17:00 +8°C° 0 mm 1 mps 759 mmHg 88%
    18:00 +7°C° 0 mm 1 mps 760 mmHg 89%
    19:00 +7°C° 0 mm 1 mps 760 mmHg 90%
    20:00 +7°C° 0 mm 1 mps 760 mmHg 91%
    21:00 +6°C° 0 mm 1 mps 760 mmHg 91%
    22:00 +6°C° 0 mm 1 mps 760 mmHg 92%
    23:00 +6°C° 0 mm 1 mps 760 mmHg 92%
    Show more